Hourly Data Report for October 26, 2013

All times are specified in Local Standard Time (LST). Add 1 hour to adjust for Daylight Saving Time where and when it is observed.

POND INLET A
NUNAVUT

72°41'22.000" N
77°58'08.000" W
61.60 m
2403206
71095
YIO

Download Data

Hourly Data (October 2013)
Hourly Data Report for October 26, 2013
Temp Definition
°C
Dew Point Temp Definition
°C
Rel Hum Definition
%
Wind Dir Definition
10's deg

Wind Spd Definition
km/h
Visibility Definition
km
Stn Press Definition
kPa
Hmdx Definition


Wind Chill Definition


Weather Definition


TIME
00:00 Legend Double Dagger -9.7 -11.6 86 14 15 16.1 99.46   -16 LegendNANA
01:00 Legend Double Dagger -9.8 -11.7 86 15 13 16.1 99.48   -16 LegendNANA
02:00 Legend Double Dagger -9.5 -11.7 84 14 15 16.1 99.48   -16 LegendNANA
03:00 Legend Double Dagger -9.2 -11.4 84 14 13 9.7 99.47   -15 LegendNANA
04:00 Legend Double Dagger -9.3 -11.4 85 14 13 16.1 99.47   -15 LegendNANA
05:00 Legend Double Dagger -9.8 -11.9 85 14 13 6.4 99.47   -16 LegendNANA
06:00 Legend Double Dagger -10.7 -13.1 83 14 17 16.1 99.48   -18 LegendNANA
07:00 Legend Double Dagger -13.0 -14.9 86 14 18 16.1 99.48   -21 LegendNANA
08:00 Legend Double Dagger -11.5 -13.4 86 15 18 16.1 99.48   -19 LegendNANA
09:00 Legend Double Dagger -10.2 -12.0 87 15 17 16.1 99.49   -17 LegendNANA
10:00 Legend Double Dagger -10.2 -12.0 87 15 17 14.5 99.50   -17 LegendNANA
11:00 Legend Double Dagger -10.1 -12.0 86 15 17 16.1 99.50   -17 LegendNANA
12:00 Legend Double Dagger -9.8 -12.2 83 14 15 16.1 99.50   -16 LegendNANA
13:00 Legend Double Dagger -9.8 -12.2 83 14 13 16.1 99.50   -16 LegendNANA
14:00 Legend Double Dagger -9.9 -12.4 82 14 15 16.1 99.50   -17 LegendNANA
15:00 Legend Double Dagger -9.9 -12.1 84 16 15 16.1 99.51   -17 LegendNANA
16:00 Legend Double Dagger -9.9 -12.3 83 15 15 16.1 99.53   -17 LegendNANA
17:00 Legend Double Dagger -9.8 -12.5 81 15 17 16.1 99.50   -17 LegendNANA
18:00 Legend Double Dagger -9.8 -12.5 81 15 17 16.1 99.51   -17 LegendNANA
19:00 Legend Double Dagger -9.9 -12.6 81 15 17 16.1 99.49   -17 LegendNANA
20:00 Legend Double Dagger -9.7 -12.7 79 14 17 16.1 99.47   -17 LegendNANA
21:00 Legend Double Dagger -9.8 -12.5 81 14 17 16.1 99.44   -17 LegendNANA
22:00 Legend Double Dagger -9.5 -12.7 78 14 17 16.1 99.40   -17 LegendNANA
23:00 Legend Double Dagger -9.8 -12.6 80 14 17 16.1 99.34   -17 LegendNANA

Notes on Data Quality.

Legend

  • E = Estimated
  • M = Missing
  • NA = Not Available
  • ‡ = Partner data that is not subject to review by the National Climate Archives
Date modified: